Location: Baumgarten
(49.0970°N, 12.7493°E)
Time: 01:22:06
(UTC+00:00)

COSMOS 2455 - Visible Passes

Search period start: 24 October 2020 00:00
Search period end: 03 November 2020 00:00
Orbit: 898 x 911 km, 67.1° (Epoch: 23 October)

Date Brightness Start Highest point End Pass type
(mag) Time Alt. Az. Time Alt. Az. Time Alt. Az.
24 Oct 5.0 17:54:15 10° NNW 17:57:16 14° N 18:00:16 10° NNE visible
24 Oct 4.8 19:41:00 10° NNW 19:43:40 19° N 19:43:40 19° N visible
24 Oct 5.7 21:26:41 10° NNW 21:26:48 11° NNW 21:26:48 11° NNW visible
25 Oct 4.9 17:58:38 10° NNW 18:01:44 14° N 18:04:21 11° NNE visible
25 Oct 4.8 19:44:59 10° NNW 19:47:28 20° N 19:47:28 20° N visible
26 Oct 4.8 18:02:53 10° NNW 18:06:11 15° N 18:08:10 13° NNE visible
26 Oct 4.8 19:48:57 10° NNW 19:51:18 20° N 19:51:18 20° N visible
27 Oct 4.7 18:07:03 10° NNW 18:10:38 16° NNE 18:12:00 15° NNE visible
27 Oct 4.8 19:52:55 10° NNW 19:55:08 21° NNW 19:55:08 21° NNW visible
28 Oct 4.9 16:23:17 10° NW 16:26:30 14° N 16:29:42 10° NNE visible
28 Oct 4.6 18:11:09 10° NNW 18:15:03 17° NNE 18:15:51 17° NNE visible
28 Oct 4.9 19:56:53 10° NNW 19:58:59 21° NNW 19:58:59 21° NNW visible
29 Oct 4.9 16:27:54 10° NW 16:30:57 14° N 16:34:01 10° NNE visible
29 Oct 4.5 18:15:11 10° NNW 18:19:26 19° NNE 18:19:43 19° NNE visible
29 Oct 4.9 20:00:52 10° NNW 20:02:52 21° NNW 20:02:52 21° NNW visible
30 Oct 4.9 16:32:25 10° NNW 16:35:25 14° N 16:38:26 10° NNE visible
30 Oct 4.3 18:19:11 10° NNW 18:23:37 22° NNE 18:23:37 22° NNE visible
30 Oct 4.9 20:04:51 10° NNW 20:06:45 21° NNW 20:06:45 21° NNW visible
31 Oct 4.8 16:36:47 10° NNW 16:39:54 14° N 16:42:59 10° NE visible
31 Oct 4.2 18:23:10 10° NNW 18:27:32 25° NNE 18:27:32 25° NNE visible
31 Oct 5.0 20:08:51 10° NW 20:10:40 21° NNW 20:10:40 21° NNW visible
01 Nov 4.8 16:41:04 10° NNW 16:44:20 15° N 16:47:37 10° NE visible
01 Nov 4.0 18:27:08 10° NNW 18:31:28 28° NNE 18:31:28 28° NNE visible
01 Nov 5.0 20:12:53 10° NW 20:14:37 20° NW 20:14:37 20° NW visible
02 Nov 4.7 16:45:14 10° NNW 16:48:47 16° NNE 16:52:18 10° NE visible
02 Nov 3.9 18:31:06 10° NNW 18:35:27 32° NNE 18:35:27 32° NNE visible
02 Nov 5.1 20:16:59 10° NW 20:18:35 19° NW 20:18:35 19° NW visible
